Weather observations for the past three days for
Austin City, Austin Camp Mabry
Imperial (Metric)
Date Time (cdt) Wind (mph) Vis. (mi.) Weather Sky Cond. Temperature (ºF) Relative Humidity Wind Chill (°F) Heat Index (°F) Pressure Precipitation (in)
Air Dwpt 6 hour altimeter (in) sea level (mb) 1 hr 3 hr 6 hr
Max. Min.
14 05:51 Calm 10.00 Partly Cloudy SCT035 SCT042 78.1 73 85% 81 29.96 1013.1
14 04:51 Calm 10.00 A Few Clouds FEW016 78.1 73 85% 81 29.95 1012.4
14 03:51 Vrbl 3 10.00 Fair CLR 79 73 82% 82 29.94 1012.3
14 02:51 Calm 10.00 Fair CLR 80.1 73 79% 84 29.94 1012.2
14 00:51 Calm 10.00 Fair CLR 82 70 93 82 67% 86 29.94 1012.3
13 22:51 E 3 10.00 Fair CLR 84.9 70 61% 89 29.94 1012.3
13 21:51 Vrbl 3 10.00 Fair CLR 86 70 59% 91 29.92 1011.7
13 20:51 Vrbl 5 10.00 Fair CLR 88 70 55% 93 29.9 1011.1
13 18:51 Vrbl 6 10.00 A Few Clouds FEW050 91.9 70 97 90 49% 98 29.89 1010.8
13 17:51 Vrbl 3 10.00 Fair CLR 93.9 70 46% 100 29.9 1010.9
13 16:51 Calm 10.00 A Few Clouds FEW060 96.1 69.1 41% 102 29.91 1011.1
13 15:51 Vrbl 5 10.00 Mostly Cloudy BKN060 95 68 41% 100 29.92 1011.8
13 14:51 Calm 10.00 Fair CLR 96.1 68 40% 101 29.94 1012.2
13 13:51 Calm 10.00 Partly Cloudy SCT044 93 70 47% 99 29.96 1012.8
13 12:51 Calm 10.00 Fair CLR 91 70 91 77 50% 97 29.98 1013.6
13 11:51 Calm 10.00 Overcast FEW034 BKN048 OVC070 84.9 73 68% 92 29.99 1014.0
13 10:51 NW 3 10.00 Overcast SCT026 OVC042 84 73 70% 90 29.99 1014.0
13 09:51 Calm 10.00 Overcast SCT031 BKN044 OVC050 82 73 74% 87 29.99 1014.2
13 08:51 Calm 10.00 Mostly Cloudy BKN055 81 73 77% 86 29.98 1013.9
13 07:51 Calm 10.00 A Few Clouds FEW049 79 73 82% 82 29.97 1013.4
13 06:51 Calm 10.00 Fair CLR 77 72 80.1 75.9 85% 78 29.95 1012.6
13 05:51 Calm 10.00 Fair CLR 77 72 85% 78 29.94 1012.3
13 04:51 Calm 10.00 Fair CLR 77 72 85% 78 29.92 1011.9
13 03:51 Calm 10.00 A Few Clouds FEW044 77 72 85% 78 29.92 1011.6
13 02:51 Calm 10.00 Fair CLR 78.1 72 82% 80 29.92 1011.7
13 01:51 Calm 10.00 A Few Clouds FEW031 79 73 82% 82 29.93 1012.0
13 00:51 SE 5 10.00 Mostly Cloudy BKN032 80.1 73 89.1 80.1 79% 84 29.94 1012.6
12 23:51 Vrbl 3 10.00 Mostly Cloudy FEW029 BKN047 BKN060 81 73 77% 86 29.95 1012.9
12 22:51 Vrbl 3 10.00 Mostly Cloudy BKN032 82.9 73 72% 89 29.94 1012.6
12 21:51 E 3 10.00 Mostly Cloudy BKN045 82.9 72 70% 88 29.92 1012.0
12 19:51 Vrbl 5 10.00 Fair CLR 84.9 72 65% 91 29.91 1011.5
12 18:51 Calm 10.00 A Few Clouds FEW030 89.1 73 93 81 59% 97 29.91 1011.2
12 17:51 Vrbl 7 10.00 Fair CLR 89.1 73 59% 97 29.91 1011.5
12 16:51 E 5 10.00 Mostly Cloudy SCT043 BKN055 BKN120 89.1 71.1 55% 95 29.92 1011.6
12 15:51 Vrbl 3 10.00 A Few Clouds FEW035 91 71.1 52% 98 29.93 1012.1
12 14:51 SW 3 10.00 Fair CLR 87.1 72 61% 94 29.95 1012.9
12 13:51 Calm 10.00 A Few Clouds FEW047 87.1 72 61% 94 29.98 1013.9
12 12:51 Vrbl 3 10.00 Overcast OVC019 81 72 82.9 75.9 74% 85 30.01 1014.8
12 11:51 Vrbl 5 10.00 Overcast BKN011 OVC024 80.1 72 76% 84 30.01 1014.9
12 10:51 Calm 10.00 Overcast OVC010 77 72 85% 78 30.01 1015.0
12 09:51 Vrbl 5 10.00 Overcast OVC012 78.1 72 82% 80 30 1014.8
12 08:51 Vrbl 3 10.00 Mostly Cloudy BKN011 BKN020 78.1 73 85% 81 29.99 1014.2
12 07:51 Calm 10.00 Overcast SCT015 BKN022 OVC110 75.9 73 91% 76 29.96 1013.4
12 05:51 SW 3 10.00 Mostly Cloudy SCT090 BKN110 73.9 71.1 91% 29.93 1012.3
12 03:51 Calm 10.00 Mostly Cloudy BKN036 BKN047 75.9 71.1 85% 76 29.93 1012.2
12 02:51 Calm 10.00 Overcast FEW029 OVC035 75.9 71.1 85% 76 29.93 1012.0
12 01:51 Calm 10.00 Mostly Cloudy BKN100 75 70 84% 75 29.93 1012.0
12 00:51 NE 3 10.00 Overcast OVC025 75.9 71.1 78.1 75 85% 76 29.93 1012.1
11 23:51 Calm 10.00 A Few Clouds FEW100 75.9 71.1 85% 76 29.93 1012.2
11 22:51 Vrbl 3 10.00 Partly Cloudy SCT100 75.9 72 88% 76 29.93 1012.0
11 21:51 NE 3 10.00 Mostly Cloudy BKN100 75.9 72 88% 76 29.91 1011.4
11 20:51 NE 3 10.00 Fair CLR 75.9 71.1 85% 76 29.88 1010.4
11 19:51 Calm 10.00 Fair CLR 75.9 72 88% 76 29.87 1010.3
11 18:51 N 6 8.00 A Few Clouds FEW090 78.1 73.9 96.1 73.9 87% 81 29.86 1010.0 0.06 0.23
11 17:51 Calm 2.50 Thunderstorm Rain Fog/Mist FEW050 BKN065 OVC090 75.9 73 91% 76 29.88 1010.7 0.05
11 15:51 N 14 G 26 10.00 Light Rain BKN060 OVC090 80.1 71.1 74% 84 29.88 1010.4
11 13:51 S 5 10.00 A Few Clouds FEW047 93 69.1 46% 98 29.88 1010.1
11 12:51 SW 3 10.00 Partly Cloudy SCT035 90 71.1 93 75 54% 96 29.91 1011.3
11 11:51 Vrbl 5 10.00 Mostly Cloudy SCT027 BKN037 88 72 59% 95 29.92 1011.7
11 10:51 Calm 10.00 Fair CLR 87.1 72 61% 94 29.93 1012.0
11 09:51 Vrbl 3 10.00 Mostly Cloudy BKN019 82.9 71.1 67% 88 29.93 1012.2
11 08:51 Calm 10.00 Mostly Cloudy BKN016 80.1 69.1 69% 83 29.93 1012.0
11 07:51 Calm 10.00 A Few Clouds FEW016 77 69.1 77% 79 29.91 1011.5
11 06:51 Calm 10.00 Fair CLR 75 70 78.1 75 84% 75 29.89 1010.7
Date Time (cdt) Wind (mph) Vis. (mi.) Weather Sky Cond. Air Dwpt Max. Min. Relative Humidity Wind Chill (°F) Heat Index (°F) altimeter (in) sea level (mb) 1 hr 3 hr 6 hr
6 hour
Temperature (ºF) Pressure Precipitation (in)